Weather History for KCQT - October, 2011

Change the Weather History Date:

Monday, October 31, 2011

  Actual Average Record
Temperature  
Mean Temperature 63 °F 66 °F  
Max Temperature 73 °F 76 °F 96 °F (1918)
Min Temperature 53 °F 56 °F 42 °F (1886)
Degree Days  
Heating Degree Days 2 1  
Month to date heating degree days 23 14  
Since 1 July heating degree days 23 20  
Cooling Degree Days 0 3  
Month to date cooling degree days 94 129  
Year to date cooling degree days 931 1207  
Growing Degree Days 12 (Base 50)    
Moisture  
Dew Point 53 °F    
Average Humidity 70    
Maximum Humidity 93    
Minimum Humidity 47    
Precipitation  
Precipitation 0.00 in 0.03 in 1.64 in (1927)
Month to date precipitation 1.17 0.66  
Year to date precipitation 9.67 11.56  
Since 1 July precipitation 1.17 0.95  
Sea Level Pressure  
Sea Level Pressure 29.96 in    
Wind  
Wind Speed 1 mph (West)    
Max Wind Speed 7 mph    
Max Gust Speed 9 mph    
Visibility 6 miles    
Events      
T = Trace of Precipitation, MM = Missing Value Source: NWS Daily Summary

Daily Weather History Graph

Daily Weather History Graph

Search for Another Location

Airport or City:

Trip Planner

Search our weather history database for the weather conditions in past years. The results will help you decide how hot, cold, wet, or windy it might be!

Date:

Astronomy

Oct. 31, 2011 Rise Set
Actual Time 7:11 AM PDT 6:01 PM PDT
Civil Twilight 6:45 AM PDT 6:27 PM PDT
Nautical Twilight 6:16 AM PDT 6:56 PM PDT
Astronomical Twilight 5:47 AM PDT 7:25 PM PDT
Moon 12:16 PM PDT (10/31) 10:47 PM PDT (10/31)
Length of Visible Light 11h 41m
Length of Day
10h 49m
Waxing Crescent, 31% of the Moon is Illuminated
Oct 31
Waxing Crescent
Nov 2
First Quarter
Nov 10
Full
Nov 18
Last Quarter
Nov 24
New

Hourly Weather History & Observations

Time (PDT) Temp. Dew Point Humidity Pressure Visibility Wind Dir Wind Speed Gust Speed Precip Events Conditions
12:47 AM 61.0 °F 55.9 °F 83% 30.02 in 5.0 mi Calm Calm - N/A   Haze
1:47 AM 57.9 °F 54.0 °F 87% 30.01 in 5.0 mi Calm Calm - N/A   Clear
2:47 AM 55.9 °F 54.0 °F 93% 30.00 in 3.0 mi Calm Calm - N/A   Clear
2:54 AM 55.4 °F 53.6 °F 94% 30.01 in 2.5 mi Calm Calm - N/A   Clear
3:10 AM 55.4 °F 53.6 °F 94% 30.00 in 3.0 mi Calm Calm - N/A   Clear
3:47 AM 55.0 °F 53.1 °F 93% 29.99 in 4.0 mi Calm Calm - N/A   Clear
4:47 AM 53.1 °F 51.1 °F 93% 29.98 in 5.0 mi Calm Calm - N/A   Clear
5:47 AM 53.1 °F 50.0 °F 89% 29.98 in 5.0 mi Calm Calm - N/A   Clear
6:47 AM 53.1 °F 50.0 °F 89% 29.97 in 6.0 mi Calm Calm - N/A   Clear
7:47 AM 54.0 °F 50.0 °F 86% 29.99 in 6.0 mi Calm Calm - N/A   Clear
8:47 AM 60.1 °F 50.0 °F 69% 30.00 in 6.0 mi West 3.5 mph - N/A   Haze
9:47 AM 66.0 °F 45.0 °F 47% 29.99 in 10.0 mi West 3.5 mph - N/A   Clear
10:47 AM 70.0 °F 48.0 °F 46% 29.99 in 7.0 mi Calm Calm - N/A   Clear
11:47 AM 72.0 °F 52.0 °F 49% 29.98 in 7.0 mi Calm Calm - N/A   Clear
12:47 PM 71.1 °F 54.0 °F 55% 29.95 in 7.0 mi Calm Calm - N/A   Clear
1:47 PM 71.1 °F 53.1 °F 53% 29.93 in 8.0 mi Variable 3.5 mph - N/A   Clear
2:47 PM 72.0 °F 53.1 °F 51% 29.92 in 9.0 mi Calm Calm - N/A   Clear
3:47 PM 72.0 °F 50.0 °F 46% 29.91 in 9.0 mi Calm Calm - N/A   Clear
4:47 PM 70.0 °F 52.0 °F 53% 29.91 in 10.0 mi Calm Calm - N/A   Clear
5:47 PM 64.9 °F 55.0 °F 70% 29.91 in 7.0 mi West 3.5 mph - N/A   Clear
6:47 PM 61.0 °F 55.9 °F 83% 29.93 in 9.0 mi West 3.5 mph - N/A   Clear
7:12 PM 60.8 °F 55.4 °F 82% 29.93 in 8.0 mi Calm Calm - N/A   Partly Cloudy
7:22 PM 60.8 °F 55.4 °F 82% 29.93 in 8.0 mi Calm Calm - N/A   Mostly Cloudy
7:47 PM 60.1 °F 55.9 °F 86% 29.94 in 7.0 mi Calm Calm - N/A   Overcast
8:42 PM 57.2 °F 55.4 °F 94% 29.94 in 6.0 mi Calm Calm - N/A   Scattered Clouds
8:47 PM 57.9 °F 55.0 °F 90% 29.94 in 5.0 mi West 4.6 mph - N/A   Partly Cloudy
9:04 PM 57.2 °F 55.4 °F 94% 29.95 in 5.0 mi Calm Calm - N/A   Mostly Cloudy
9:38 PM 57.2 °F 55.4 °F 94% 29.95 in 4.0 mi Calm Calm - N/A   Overcast
9:47 PM 57.0 °F 55.0 °F 93% 29.94 in 3.0 mi Calm Calm - N/A   Overcast
10:47 PM 57.0 °F 55.0 °F 93% 29.95 in 3.0 mi Calm Calm - N/A   Overcast
11:04 PM 55.4 °F 53.6 °F 94% 29.95 in 2.5 mi Calm Calm - N/A   Overcast
11:18 PM 55.4 °F 53.6 °F 94% 29.95 in 3.0 mi Calm Calm - N/A   Overcast
11:35 PM 55.4 °F 53.6 °F 94% 29.95 in 2.5 mi Calm Calm - N/A   Overcast
11:47 PM 55.9 °F 54.0 °F 93% 29.95 in 2.5 mi Calm Calm - N/A   Overcast